Location: Dackenheim
(49.5215°N, 8.1854°E)
Time: 03:20:11
(UTC+00:00)

AO-85 - Pass Details

Date: 14 March 2026
Orbit: 507 x 686 km, 64.8° (Epoch: 12 April)

Event Time Altitude Azimuth Distance (km) Brightness Sun altitude
Exits shadow 03:56:20 19° 190° (S) 1,310 ? -18.0°
Maximum altitude 03:58:54 47° 123° (ESE) 702 ? -17.6°
Drops below altitude 10° 04:02:39 10° 49° (NE) 1,748 ? -17.0°
Sets 04:04:51 0° 44° (NE) 2,628 ? -16.6°
